SCP
0 0 0 0 0 0 0 0 0 0 0 0 0 0 0 0 0 0 0 0 0 0 0 0 0 0 0 0 0 0 0 0 0 0 0 -0 -0 0 0 0 0 0 0 0 0
0 0 0 0 0 0 0 0 0 0 0 0 0 0 0 0 0 0 0 0 0 0 0 0 0 0 0 0 0 0 0 0 0 0 0 0 0 0 0 0 0 0 0 0 0
0 0 0 0 0 0 0 0 0 0 0 0 0 0 0 0 -0 0 0 0 0 0 0 0 0 0 0 0 0 0 0 0 0 0 0 0 0 0 0 0 0 0 0 0 0
0 0 0 0 0 0 0 0 0 0 0 0 0 0 0 0 0 0 0 0 0 0 0 0 0 0 0 0 0 0 0 0 0 0 0 0 0 0 0 0 0 0 0 0 0
0 0 0 0 0 0 0 0 0 0 0 0 0 0 0 0 0 0 0 0 0 0 0 0 0 0 0 0 0 0 0 0 0 0 0 0 0 0 0 0 0 0 0 0 0
0 0 0 0 0 0 0 0 0 0 0 0 0 0 0 0 0 0 0 0 0 0 0 0 0 0 0 0 0 0 0 0 0 0 0 0 0 0 0 0 -0 0 0 0 0
0 0 0 0 0 0 0 0 0 0 0 0 0 0 0 0 0 0 0 0 0 0 0 0 0 0 0 0 0 0 0 0 0 0 0 0 0 0 0 0 0 0 0 0 0
0 0 0 0 0 0 0 0 0 0 0 0 0 0 0 0 0 0 0 0 0 0 0 0 0 0 0 0 0 0 0 0 0 0 0 0 0 0 0 -0 -0 -0 0 0 0
0 0 0 0 0 0 0 0 0 0 0 0 0 0 0 0 0 0 0 0 0 0 0 0 0 0 0 0 0 0 0 0 0 0 0 0 0 0 0 0 0 0 0 0 0
0 0 0 0 0 0 0 0 0 0 0 0 0 0 0 0 0 0 0 0 0 0 0 0 0 0 0 0 0 0 0 0 0 0 0 0 0 0 0 0 0 0 0 0 0
0 0 0 0 0 0 0 -0 0 0 0 0 0 0 0 0 0 0 0 0 0 0 0 0 0 0 0 0 0 0 0 0 0 0 0 0 0 0 0 0 0 0 0 0 0
0 0 0 0 0 0 0 -0 0 0 0 0 0 0 0 0 0 0 0 0 0 0 0 0 0 0 0 0 0 0 0 0 0 0 0 0 0 0 0 0 0 0 0 0 0
0 0 0 0 0 0 0 0 0 0 0 0 0 0 0 0 0 0 0 0 0 0 0 0 0 0 0 0 0 0 0 0 0 0 0 0 0 -0 0 0 0 0 0 0 0
0 0 -0 -0 -0 -0 -0 0 0 0 0 0 0 0 0 0 0 0 0 0 0 0 0 0 0 0 0 0 0 0 0 0 0 0 0 0 -0 -0 0 0 0 0 0 0 0
0 0 -0 -0 -0 -0 -0 -0 0 0 0 0 0 0 0 0 0 0 0 0 0 0 0 0 0 0 0 0 0 0 0 0 0 0 0 0 0 -0 0 0 0 0 0 0 0
-0 0 -0 0 -0 -0 -0 -0 -0 -0 0 0 0 0 0 0 0 0 0 0 0 0 0 0 0 0 0 0 0 0 0 0 0 0 0 0 0 -0 -0 0 0 0 0 0 0
-0 -0 0 0 -0 -0 -0 -0 -0 0 0 0 0 0 0 0 0 0 0 0 0 0 0 0 0 0 0 0 0 0 0 0 0 0 0 0 0 0 0 0 0 0 0 0 0
-0 0 0 -0 -0 -0 -0 -0 -0 0 0 0 0 0 0 0 -0 0 0 0 0 0 0 0 0 -0 0 0 0 0 0 0 0 0 0 0 0 0 0 0 0 0 -0 0 0
-0 0 0 -0 -0 -0 -0 -0 -0 0 0 0 0 0 0 0 0 0 0 0 0 0 0 0 0 0 0 0 0 0 0 0 0 0 0 0 0 0 0 0 0 0 0 0 0
-0 -0 -0 -0 -0 -0 -0 -0 0 0 0 0 0 0 0 0 0 0 0 0 -0 -0 -0 0 0 0 0 0 0 0 0 0 0 0 0 0 0 0 0 0 0 0 0 0 0
-0 -0 -0 -0 0 -0 -0 -0 0 0 0 0 0 0 0 0 0 0 0 -0 0 -0 -0 -0 0 0 0 0 0 0 0 0 0 0 0 0 0 0 0 0 0 0 0 0 0
-0 -0 0 -0 -0 -0 -0 0 0 0 0 0 0 0 0 0 0 0 0 0 -0 -0 -0 -0 -0 0 0 0 0 0 0 0 0 0 0 0 0 0 0 0 0 0 0 0 0
-0 -0 0 -0 -0 -0 -0 0 0 0 0 0 0 0 0 0 0 0 0 0 -0 0 -0 -0 0 0 0 0 0 0 0 0 0 0 0 0 0 0 0 0 0 0 0 0 0
0 -0 0 0 0 0 0 0 0 0 0 0 0 0 0 0 0 0 0 0 -0 0 0 0 -0 0 0 0 0 0 0 0 0 0 0 0 0 0 0 0 0 0 0 0 0
0 0 0 0 0 0 0 0 0 0 0 0 0 0 0 0 0 0 0 0 -0 -0 0 -0 -0 0 0 0 -0 -0 0 0 0 0 0 0 0 0 0 0 0 0 0 0 0
0 0 0 0 0 0 0 0 0 0 0 0 0 0 0 0 0 0 0 0 0 -0 0 -0 -0 -0 0 0 0 -0 -0 -0 0 0 0 0 0 0 0 0 0 0 0 0 0
0 0 0 0 0 0 0 0 0 0 0 0 0 0 0 0 0 0 0 0 0 0 -0 0 -0 0 -0 -0 -0 -0 -0 -0 -0 -0 0 0 0 0 0 0 0 0 0 0 0
Wind_Speed_500mb
18 20 21 21 21 21 23 25 27 28 30 33 35 39 43 46 50 52 59 54 47 44 36 36 32 18 17 18 35 21 18 35 52 59 58 51 30 38 51 56 60 42 50 35 27
26 22 21 21 24 27 28 28 28 29 30 32 36 38 41 45 51 67 65 62 59 51 38 31 25 22 18 16 21 23 29 50 49 50 50 51 47 43 36 36 50 53 51 39 33
33 32 31 30 28 28 31 33 35 35 36 38 38 38 39 41 41 24 16 17 21 28 30 27 25 25 30 31 35 24 45 43 50 64 61 55 46 56 46 52 67 60 58 57 55
39 38 38 38 38 38 39 38 38 40 41 43 46 44 41 26 17 15 18 15 9 12 24 22 24 22 20 31 41 39 50 49 54 62 62 46 59 51 65 68 69 65 60 58 47
44 44 45 45 46 46 46 46 46 45 43 43 46 47 42 18 43 57 53 46 32 26 30 32 35 38 27 18 33 49 47 57 57 55 57 61 55 55 68 62 70 72 67 58 57
46 47 48 48 49 47 45 44 45 49 50 47 45 44 32 31 51 50 38 36 34 33 31 35 19 40 35 38 34 22 27 45 55 54 55 43 49 56 52 55 78 74 68 63 65
47 51 54 57 59 57 55 50 48 48 47 48 48 42 36 66 54 55 49 43 37 34 31 32 35 23 9 30 45 45 43 44 48 51 46 32 53 62 75 72 75 66 67 65 67
54 55 59 60 61 60 55 52 50 48 45 42 43 30 32 43 50 60 59 43 39 34 30 24 29 34 45 33 39 32 38 37 16 32 31 23 59 31 35 60 70 73 70 66 65
57 61 62 62 61 57 51 45 41 40 38 36 25 20 30 39 48 56 43 29 35 31 27 19 18 26 25 31 32 34 42 46 46 30 12 37 56 31 24 26 51 55 56 53 53
62 67 68 67 59 53 49 37 27 22 15 9 13 14 33 15 21 24 32 31 16 23 15 20 20 22 26 30 40 36 51 44 48 34 30 39 62 47 60 46 42 49 52 53 56
64 68 69 65 49 59 57 25 14 7 9 20 12 24 18 20 24 15 24 32 22 27 23 39 18 42 55 53 58 53 57 63 56 29 14 38 58 57 50 58 45 60 64 70 74
62 66 67 61 41 48 45 25 19 18 36 37 52 61 59 66 47 32 26 29 30 42 39 24 48 70 50 47 53 56 59 64 52 43 32 37 66 57 53 54 63 66 72 79 82
59 60 63 49 39 46 32 36 20 23 16 21 11 11 36 45 52 76 60 50 53 49 58 58 70 45 46 48 51 58 58 59 54 36 35 33 64 69 56 62 79 84 88 81 82
57 54 59 57 18 46 28 41 22 12 10 13 17 24 57 79 18 49 39 74 60 63 58 50 79 53 44 55 53 50 56 49 42 24 32 17 36 52 39 43 36 35 58 68 72
58 50 52 52 25 43 47 44 15 5 8 23 21 27 94 58 67 17 44 22 63 61 29 52 42 37 51 71 38 45 16 33 35 37 38 46 18 44 5 20 23 30 48 56 51
58 41 48 41 34 40 42 31 6 5 8 22 35 60 64 55 60 62 63 30 36 32 47 68 40 15 39 34 40 17 21 4 11 20 26 60 36 62 36 48 40 22 15 19 6
50 38 54 38 44 44 34 14 4 10 32 25 45 61 56 49 44 42 48 38 25 16 25 40 59 51 15 20 11 37 25 14 13 12 25 41 31 54 5 11 29 21 10 6 7
43 38 43 40 37 40 29 2 18 19 16 43 42 51 39 43 37 48 45 38 27 42 22 17 21 48 44 51 29 44 43 20 28 28 34 32 22 45 32 31 34 6 14 13 13
30 36 43 34 34 38 14 19 7 16 29 32 43 36 37 44 32 48 41 20 23 37 24 15 20 26 25 23 42 32 39 58 25 22 8 16 29 39 33 30 11 11 3 15 15
25 12 50 38 38 28 16 17 8 21 30 27 34 25 34 35 41 41 30 22 28 36 38 16 35 29 14 9 29 39 12 27 20 17 27 23 39 27 14 18 12 12 16 21 22
16 11 38 30 26 32 15 9 8 27 32 17 28 30 40 40 42 36 19 35 44 48 43 28 13 31 16 10 26 20 22 14 10 24 20 19 17 11 10 15 13 15 19 20 22
17 7 28 33 27 15 14 13 17 22 35 14 20 30 35 41 32 36 42 40 68 45 42 24 14 24 49 48 9 9 22 37 17 20 21 28 22 11 17 19 18 18 21 23 26
9 8 19 31 11 15 21 11 11 18 22 13 20 29 31 34 30 38 40 67 48 41 26 12 16 25 33 15 33 16 42 40 36 34 25 19 26 15 18 19 19 18 24 26 29
7 6 10 12 10 16 19 11 17 22 22 21 33 35 29 41 40 27 48 31 61 48 62 29 16 23 23 39 34 40 38 44 29 20 32 38 43 19 17 18 15 18 23 27 32
12 6 5 9 10 21 18 14 24 20 15 29 27 35 41 38 38 42 46 47 57 47 28 21 27 33 38 50 49 45 42 37 32 30 33 47 46 46 15 17 14 17 22 29 34
9 10 7 28 16 17 11 8 19 22 28 30 27 48 43 37 40 40 37 37 38 40 29 27 29 29 42 45 47 44 37 40 36 36 44 48 46 22 20 19 19 22 24 31 33
13 11 6 13 11 12 5 10 29 39 19 45 42 38 36 37 49 52 55 61 49 42 42 34 23 27 41 37 36 24 16 13 14 21 16 13 22 29 12 21 25 22 26 31 32
Wind_Direction_500mb
347 348 344 344 340 333 329 328 330 326 323 321 318 312 307 301 295 289 277 277 278 274 270 258 251 238 218 229 225 240 246 242 246 251 265 268 256 264 271 245 256 254 252 254 242
346 346 338 330 327 325 322 321 321 321 321 317 317 317 313 307 302 289 290 281 272 263 253 233 225 217 221 237 217 215 236 238 248 264 275 279 285 274 258 247 244 244 241 249 235
338 336 330 324 318 314 312 312 312 313 315 314 312 314 316 314 313 282 311 293 272 249 229 225 233 221 232 229 222 232 245 254 250 258 272 282 278 271 268 258 255 249 246 244 243
328 323 320 317 314 312 308 304 303 303 305 308 309 310 313 309 281 284 303 303 287 214 207 201 205 212 234 225 229 255 254 255 257 268 280 276 275 263 259 254 260 262 262 255 234
331 329 325 320 315 311 306 302 299 296 295 296 298 301 306 271 260 278 283 272 260 238 215 208 215 224 243 240 250 246 254 268 265 264 268 273 262 262 258 254 259 259 257 259 250
332 327 322 318 312 308 304 302 296 292 291 292 292 293 282 254 269 274 272 267 250 237 226 220 226 235 271 261 253 269 266 267 266 266 268 262 267 257 252 248 251 255 255 250 246
343 339 334 327 319 313 308 303 296 293 289 285 289 291 260 253 269 269 266 256 245 235 221 226 236 235 258 259 257 266 270 269 259 256 247 269 272 250 252 246 249 252 253 252 251
354 349 345 340 329 321 315 307 297 291 286 278 279 275 260 271 260 253 250 244 238 228 219 227 222 244 253 263 277 260 259 263 269 236 228 193 258 267 283 231 245 250 253 252 252
3 358 357 347 338 331 323 314 301 291 283 278 273 235 266 265 258 257 242 228 231 223 218 223 202 224 235 237 262 240 259 259 261 215 196 203 262 264 262 257 246 247 252 254 252
5 1 2 353 342 342 340 333 317 312 297 262 246 255 251 283 265 255 224 203 198 192 197 207 214 224 216 221 240 245 248 253 258 271 221 242 255 265 273 271 257 261 262 255 248
4 2 4 357 352 358 349 8 356 266 304 239 269 253 320 309 305 258 218 193 192 198 206 196 213 223 220 219 237 249 261 270 271 273 266 262 269 264 264 262 259 254 253 252 252
2 2 4 0 13 15 16 61 40 337 302 287 274 275 281 284 272 258 226 202 202 221 212 196 226 233 233 235 233 240 249 257 267 260 251 266 272 273 267 264 258 255 252 251 250
2 2 2 10 24 25 22 23 348 340 271 314 304 347 13 319 282 280 243 236 241 242 232 225 242 237 233 232 233 233 239 249 252 259 259 261 277 275 266 249 247 251 253 254 250
2 0 3 15 18 3 6 349 345 332 294 308 28 24 353 342 274 328 293 246 246 247 250 246 252 256 243 234 226 239 234 252 260 264 251 224 276 272 280 276 259 248 248 250 251
3 3 8 16 6 356 335 343 326 162 292 18 9 339 340 343 321 319 333 279 249 250 253 234 252 245 234 234 211 237 265 243 243 236 252 252 250 279 286 268 254 254 246 250 256
6 14 7 11 6 0 335 342 106 232 264 353 344 338 340 353 342 354 346 292 276 276 271 267 246 288 264 258 226 228 225 151 245 232 235 244 230 277 259 257 268 288 278 288 248
7 20 14 7 354 356 346 349 233 17 344 346 332 336 331 346 342 352 342 329 305 292 262 274 251 249 240 239 246 204 192 208 214 209 236 247 219 242 135 208 297 284 272 220 297
11 24 13 22 19 10 5 335 56 11 353 329 330 324 340 3 346 347 337 330 24 8 316 298 294 228 216 226 214 201 200 207 224 228 246 234 220 237 238 260 271 307 281 290 280
32 36 19 23 17 25 19 55 43 350 339 328 325 338 336 348 345 345 331 3 27 22 4 300 281 335 332 279 239 205 223 230 280 281 266 259 241 268 278 258 281 30 47 71 57
16 36 18 13 23 26 43 85 7 355 338 330 334 345 339 338 345 347 317 20 5 9 358 298 306 289 317 270 248 252 310 225 226 235 238 246 259 264 234 245 70 38 44 44 38
28 65 10 16 26 47 53 45 319 349 354 333 329 333 339 339 326 326 315 334 357 340 344 306 312 300 296 223 247 205 238 245 255 239 247 248 241 9 19 41 77 64 50 41 40
33 63 2 22 46 29 24 342 327 344 350 339 325 342 339 332 332 321 324 318 331 328 331 335 279 315 294 296 331 311 274 243 250 236 241 256 258 71 83 76 84 78 65 53 49
48 1 359 24 38 18 0 328 335 321 336 323 325 327 322 328 325 320 313 315 312 335 329 332 341 324 329 150 27 11 323 328 312 272 273 246 242 115 110 96 76 77 63 50 42
41 8 357 36 35 350 352 329 328 320 324 323 310 314 303 313 314 303 306 307 319 311 309 330 296 298 277 294 297 297 299 299 295 282 265 253 264 194 158 130 96 74 65 51 41
32 49 7 326 349 336 321 300 315 325 326 329 314 309 315 310 306 297 305 311 311 312 305 316 295 290 280 287 291 277 284 299 289 281 251 259 263 273 198 117 77 68 64 53 37
37 354 311 291 288 308 317 291 305 320 323 307 315 311 309 299 295 308 317 305 300 303 291 295 286 295 287 287 284 282 279 283 279 278 263 259 259 82 67 67 45 42 49 54 39
1 342 306 289 298 297 272 287 303 312 302 310 311 309 310 314 314 302 294 288 281 284 290 293 282 295 287 298 299 282 298 313 317 18 329 336 354 341 96 59 35 23 34 42 38
Wind_Speed_850mb
18 20 21 21 21 21 23 25 27 28 30 33 35 39 43 46 50 52 59 54 47 44 36 36 32 18 17 18 35 21 18 35 52 59 58 51 30 38 51 56 60 42 50 35 27
26 22 21 21 24 27 28 28 28 29 30 32 36 38 41 45 51 67 65 62 59 51 38 31 25 22 18 16 21 23 29 50 49 50 50 51 47 43 36 36 50 53 51 39 33
33 32 31 30 28 28 31 33 35 35 36 38 38 38 39 41 41 24 16 17 21 28 30 27 25 25 30 31 35 24 45 43 50 64 61 55 46 56 46 52 67 60 58 57 55
39 38 38 38 38 38 39 38 38 40 41 43 46 44 41 26 17 15 18 15 9 12 24 22 24 22 20 31 41 39 50 49 54 62 62 46 59 51 65 68 69 65 60 58 47
44 44 45 45 46 46 46 46 46 45 43 43 46 47 42 18 43 57 53 46 32 26 30 32 35 38 27 18 33 49 47 57 57 55 57 61 55 55 68 62 70 72 67 58 57
46 47 48 48 49 47 45 44 45 49 50 47 45 44 32 31 51 50 38 36 34 33 31 35 19 40 35 38 34 22 27 45 55 54 55 43 49 56 52 55 78 74 68 63 65
47 51 54 57 59 57 55 50 48 48 47 48 48 42 36 66 54 55 49 43 37 34 31 32 35 23 9 30 45 45 43 44 48 51 46 32 53 62 75 72 75 66 67 65 67
54 55 59 60 61 60 55 52 50 48 45 42 43 30 32 43 50 60 59 43 39 34 30 24 29 34 45 33 39 32 38 37 16 32 31 23 59 31 35 60 70 73 70 66 65
57 61 62 62 61 57 51 45 41 40 38 36 25 20 30 39 48 56 43 29 35 31 27 19 18 26 25 31 32 34 42 46 46 30 12 37 56 31 24 26 51 55 56 53 53
62 67 68 67 59 53 49 37 27 22 15 9 13 14 33 15 21 24 32 31 16 23 15 20 20 22 26 30 40 36 51 44 48 34 30 39 62 47 60 46 42 49 52 53 56
64 68 69 65 49 59 57 25 14 7 9 20 12 24 18 20 24 15 24 32 22 27 23 39 18 42 55 53 58 53 57 63 56 29 14 38 58 57 50 58 45 60 64 70 74
62 66 67 61 41 48 45 25 19 18 36 37 52 61 59 66 47 32 26 29 30 42 39 24 48 70 50 47 53 56 59 64 52 43 32 37 66 57 53 54 63 66 72 79 82
59 60 63 49 39 46 32 36 20 23 16 21 11 11 36 45 52 76 60 50 53 49 58 58 70 45 46 48 51 58 58 59 54 36 35 33 64 69 56 62 79 84 88 81 82
57 54 59 57 18 46 28 41 22 12 10 13 17 24 57 79 18 49 39 74 60 63 58 50 79 53 44 55 53 50 56 49 42 24 32 17 36 52 39 43 36 35 58 68 72
58 50 52 52 25 43 47 44 15 5 8 23 21 27 94 58 67 17 44 22 63 61 29 52 42 37 51 71 38 45 16 33 35 37 38 46 18 44 5 20 23 30 48 56 51
58 41 48 41 34 40 42 31 6 5 8 22 35 60 64 55 60 62 63 30 36 32 47 68 40 15 39 34 40 17 21 4 11 20 26 60 36 62 36 48 40 22 15 19 6
50 38 54 38 44 44 34 14 4 10 32 25 45 61 56 49 44 42 48 38 25 16 25 40 59 51 15 20 11 37 25 14 13 12 25 41 31 54 5 11 29 21 10 6 7
43 38 43 40 37 40 29 2 18 19 16 43 42 51 39 43 37 48 45 38 27 42 22 17 21 48 44 51 29 44 43 20 28 28 34 32 22 45 32 31 34 6 14 13 13
30 36 43 34 34 38 14 19 7 16 29 32 43 36 37 44 32 48 41 20 23 37 24 15 20 26 25 23 42 32 39 58 25 22 8 16 29 39 33 30 11 11 3 15 15
25 12 50 38 38 28 16 17 8 21 30 27 34 25 34 35 41 41 30 22 28 36 38 16 35 29 14 9 29 39 12 27 20 17 27 23 39 27 14 18 12 12 16 21 22
16 11 38 30 26 32 15 9 8 27 32 17 28 30 40 40 42 36 19 35 44 48 43 28 13 31 16 10 26 20 22 14 10 24 20 19 17 11 10 15 13 15 19 20 22
17 7 28 33 27 15 14 13 17 22 35 14 20 30 35 41 32 36 42 40 68 45 42 24 14 24 49 48 9 9 22 37 17 20 21 28 22 11 17 19 18 18 21 23 26
9 8 19 31 11 15 21 11 11 18 22 13 20 29 31 34 30 38 40 67 48 41 26 12 16 25 33 15 33 16 42 40 36 34 25 19 26 15 18 19 19 18 24 26 29
7 6 10 12 10 16 19 11 17 22 22 21 33 35 29 41 40 27 48 31 61 48 62 29 16 23 23 39 34 40 38 44 29 20 32 38 43 19 17 18 15 18 23 27 32
12 6 5 9 10 21 18 14 24 20 15 29 27 35 41 38 38 42 46 47 57 47 28 21 27 33 38 50 49 45 42 37 32 30 33 47 46 46 15 17 14 17 22 29 34
9 10 7 28 16 17 11 8 19 22 28 30 27 48 43 37 40 40 37 37 38 40 29 27 29 29 42 45 47 44 37 40 36 36 44 48 46 22 20 19 19 22 24 31 33
13 11 6 13 11 12 5 10 29 39 19 45 42 38 36 37 49 52 55 61 49 42 42 34 23 27 41 37 36 24 16 13 14 21 16 13 22 29 12 21 25 22 26 31 32
Wind_Direction_850mb
347 348 344 344 340 333 329 328 330 326 323 321 318 312 307 301 295 289 277 277 278 274 270 258 251 238 218 229 225 240 246 242 246 251 265 268 256 264 271 245 256 254 252 254 242
346 346 338 330 327 325 322 321 321 321 321 317 317 317 313 307 302 289 290 281 272 263 253 233 225 217 221 237 217 215 236 238 248 264 275 279 285 274 258 247 244 244 241 249 235
338 336 330 324 318 314 312 312 312 313 315 314 312 314 316 314 313 282 311 293 272 249 229 225 233 221 232 229 222 232 245 254 250 258 272 282 278 271 268 258 255 249 246 244 243
328 323 320 317 314 312 308 304 303 303 305 308 309 310 313 309 281 284 303 303 287 214 207 201 205 212 234 225 229 255 254 255 257 268 280 276 275 263 259 254 260 262 262 255 234
331 329 325 320 315 311 306 302 299 296 295 296 298 301 306 271 260 278 283 272 260 238 215 208 215 224 243 240 250 246 254 268 265 264 268 273 262 262 258 254 259 259 257 259 250
332 327 322 318 312 308 304 302 296 292 291 292 292 293 282 254 269 274 272 267 250 237 226 220 226 235 271 261 253 269 266 267 266 266 268 262 267 257 252 248 251 255 255 250 246
343 339 334 327 319 313 308 303 296 293 289 285 289 291 260 253 269 269 266 256 245 235 221 226 236 235 258 259 257 266 270 269 259 256 247 269 272 250 252 246 249 252 253 252 251
354 349 345 340 329 321 315 307 297 291 286 278 279 275 260 271 260 253 250 244 238 228 219 227 222 244 253 263 277 260 259 263 269 236 228 193 258 267 283 231 245 250 253 252 252
3 358 357 347 338 331 323 314 301 291 283 278 273 235 266 265 258 257 242 228 231 223 218 223 202 224 235 237 262 240 259 259 261 215 196 203 262 264 262 257 246 247 252 254 252
5 1 2 353 342 342 340 333 317 312 297 262 246 255 251 283 265 255 224 203 198 192 197 207 214 224 216 221 240 245 248 253 258 271 221 242 255 265 273 271 257 261 262 255 248
4 2 4 357 352 358 349 8 356 266 304 239 269 253 320 309 305 258 218 193 192 198 206 196 213 223 220 219 237 249 261 270 271 273 266 262 269 264 264 262 259 254 253 252 252
2 2 4 0 13 15 16 61 40 337 302 287 274 275 281 284 272 258 226 202 202 221 212 196 226 233 233 235 233 240 249 257 267 260 251 266 272 273 267 264 258 255 252 251 250
2 2 2 10 24 25 22 23 348 340 271 314 304 347 13 319 282 280 243 236 241 242 232 225 242 237 233 232 233 233 239 249 252 259 259 261 277 275 266 249 247 251 253 254 250
2 0 3 15 18 3 6 349 345 332 294 308 28 24 353 342 274 328 293 246 246 247 250 246 252 256 243 234 226 239 234 252 260 264 251 224 276 272 280 276 259 248 248 250 251
3 3 8 16 6 356 335 343 326 162 292 18 9 339 340 343 321 319 333 279 249 250 253 234 252 245 234 234 211 237 265 243 243 236 252 252 250 279 286 268 254 254 246 250 256
6 14 7 11 6 0 335 342 106 232 264 353 344 338 340 353 342 354 346 292 276 276 271 267 246 288 264 258 226 228 225 151 245 232 235 244 230 277 259 257 268 288 278 288 248
7 20 14 7 354 356 346 349 233 17 344 346 332 336 331 346 342 352 342 329 305 292 262 274 251 249 240 239 246 204 192 208 214 209 236 247 219 242 135 208 297 284 272 220 297
11 24 13 22 19 10 5 335 56 11 353 329 330 324 340 3 346 347 337 330 24 8 316 298 294 228 216 226 214 201 200 207 224 228 246 234 220 237 238 260 271 307 281 290 280
32 36 19 23 17 25 19 55 43 350 339 328 325 338 336 348 345 345 331 3 27 22 4 300 281 335 332 279 239 205 223 230 280 281 266 259 241 268 278 258 281 30 47 71 57
16 36 18 13 23 26 43 85 7 355 338 330 334 345 339 338 345 347 317 20 5 9 358 298 306 289 317 270 248 252 310 225 226 235 238 246 259 264 234 245 70 38 44 44 38
28 65 10 16 26 47 53 45 319 349 354 333 329 333 339 339 326 326 315 334 357 340 344 306 312 300 296 223 247 205 238 245 255 239 247 248 241 9 19 41 77 64 50 41 40
33 63 2 22 46 29 24 342 327 344 350 339 325 342 339 332 332 321 324 318 331 328 331 335 279 315 294 296 331 311 274 243 250 236 241 256 258 71 83 76 84 78 65 53 49
48 1 359 24 38 18 0 328 335 321 336 323 325 327 322 328 325 320 313 315 312 335 329 332 341 324 329 150 27 11 323 328 312 272 273 246 242 115 110 96 76 77 63 50 42
41 8 357 36 35 350 352 329 328 320 324 323 310 314 303 313 314 303 306 307 319 311 309 330 296 298 277 294 297 297 299 299 295 282 265 253 264 194 158 130 96 74 65 51 41
32 49 7 326 349 336 321 300 315 325 326 329 314 309 315 310 306 297 305 311 311 312 305 316 295 290 280 287 291 277 284 299 289 281 251 259 263 273 198 117 77 68 64 53 37
37 354 311 291 288 308 317 291 305 320 323 307 315 311 309 299 295 308 317 305 300 303 291 295 286 295 287 287 284 282 279 283 279 278 263 259 259 82 67 67 45 42 49 54 39
1 342 306 289 298 297 272 287 303 312 302 310 311 309 310 314 314 302 294 288 281 284 290 293 282 295 287 298 299 282 298 313 317 18 329 336 354 341 96 59 35 23 34 42 38